AA0FC Weather Reports


time (UTC)temp
C
wind
direction
speed
KPH
gust
KPH
rain 1hr
cm
rain 24hr
cm
rain mn
cm
humidity
%
barometer
mb
20260505121921 1 15 3.2 9.7 0.10 0.91 0.53 86 1014.5
20260505121420 1 335 3.2 9.7 0.08 0.89 0.51 86 1014.5
20260505120920 1 316 4.8 14.5 0.08 0.89 0.51 86 1014.5
20260505120419 1 335 3.2 14.5 0.08 0.89 0.51 86 1014.5
20260505115918 2 1 4.8 12.9 0.05 0.86 0.48 86 1014.4
20260505115413 2 309 4.8 14.5 0.08 0.86 0.48 86 1014.4
20260505114912 2 35 4.8 14.5 0.08 0.86 0.48 86 1014.3
20260505114410 2 307 4.8 12.9 0.08 0.86 0.48 86 1014.4
20260505113911 2 301 4.8 14.5 0.08 0.86 0.48 86 1014.4
20260505113408 2 45 6.4 14.5 0.08 0.84 0.46 86 1014.3
20260505112909 2 335 8.0 16.1 0.08 0.84 0.46 86 1014.1
20260505112406 2 304 6.4 16.1 0.08 0.84 0.46 86 1014.1
20260505111905 2 8 4.8 16.1 0.08 0.81 0.43 86 1014.1
20260505111636 2 12 4.8 16.1 0.08 0.81 0.43 86 1014.0
20260505110904 2 11 6.4 12.9 0.08 0.81 0.43 86 1014.1
20260505110402 3 12 8.0 16.1 0.10 0.81 0.43 86 1013.9
20260505101855 4 9 8.0 16.1 0.25 0.74 0.36 86 1013.1
20260505101356 4 24 8.0 22.5 0.25 0.74 0.36 86 1013.1
20260505101352 5 15 9.7 22.5 0.25 0.74 0.36 86 1013.0
20260505100350 5 11 8.0 19.3 0.23 0.71 0.33 86 1012.9
20260505095851 5 20 6.4 17.7 0.20 0.69 0.33 86 1012.7
20260505095349 5 26 6.4 19.3 0.18 0.66 0.28 86 1012.7
20260505094849 5 4 4.8 19.3 0.18 0.64 0.25 86 1012.7
20260505094349 5 8 4.8 14.5 0.15 0.61 0.23 86 1012.5
20260505093846 5 2 6.4 24.1 0.10 0.56 0.18 86 1012.5
20260505093343 5 2 8.0 24.1 0.05 0.51 0.13 86 1012.5
20260505093116 5 5 8.0 19.3 0.03 0.48 0.10 86 1012.4
20260505092344 5 335 8.0 17.7 0.03 0.48 0.10 86 1012.5
20260505092113 5 16 8.0 17.7 0.03 0.48 0.10 86 1012.4
20260505091342 5 4 8.0 19.3 0.03 0.48 0.10 86 1012.3
20260505091112 5 12 11.3 22.5 0.03 0.48 0.10 86 1012.3
20260505090341 5 4 11.3 22.5 0.05 0.48 0.10 86 1012.2
20260505085840 6 4 9.7 20.9 0.05 0.48 0.10 86 1012.3
20260505085338 6 30 9.7 20.9 0.08 0.48 0.10 86 1012.2
20260505084836 6 335 9.7 17.7 0.05 0.46 0.08 86 1012.0
20260505084335 6 303 8.0 16.1 0.05 0.46 0.08 86 1011.9
20260505083832 6 15 8.0 17.7 0.05 0.46 0.08 86 1011.9
20260505083332 6 18 6.4 17.7 0.05 0.46 0.08 86 1012.0
20260505082831 6 11 4.8 17.7 0.08 0.46 0.08 86 1011.9
20260505082331 6 22 6.4 17.7 0.08 0.46 0.08 86 1011.9
20260505081830 6 324 8.0 19.3 0.08 0.46 0.08 86 1012.2
20260505081326 6 76 6.4 19.3 0.08 0.46 0.08 85 1012.3
20260505080827 6 5 8.0 19.3 0.08 0.46 0.08 85 1012.2
20260505080327 6 335 8.0 19.3 0.05 0.43 0.05 85 1012.3
20260505075824 6 321 8.0 17.7 0.05 0.43 0.05 85 1012.0
20260505075321 7 15 8.0 17.7 0.03 0.41 0.05 85 1012.0
20260505074822 7 9 8.0 22.5 0.03 0.41 0.03 85 1012.0
20260505074322 7 323 8.0 22.5 0.03 0.41 0.03 85 1012.2
20260505073822 7 1 9.7 19.3 0.03 0.41 0.03 85 1012.3
20260505073320 8 15 8.0 19.3 0.03 0.41 0.03 85 1012.2
20260505072822 8 335 1.6 11.3 0.00 0.38 0.00 86 1012.0
20260505072818 8 335 4.8 14.5 0.00 0.38 0.00 86 1012.0
20260505071816 8 335 1.6 6.4 0.00 0.38 0.00 86 1012.0
20260505071316 8 20 1.6 6.4 0.00 0.38 0.00 86 1012.0
20260505070815 8 20 1.6 6.4 0.00 0.38 0.00 86 1011.9
20260505070548 8 318 1.6 6.4 0.00 0.38 0.00 86 1011.8
20260505065816 8 236 0.0 3.2 0.00 0.38 0.00 86 1011.6
20260505065316 8 221 0.0 1.6 0.00 0.38 0.00 86 1011.4
20260505064815 8 221 0.0 0.0 0.00 0.38 0.00 86 1011.4
20260505064316 8 221 0.0 0.0 0.00 0.38 0.00 86 1011.4
20260505063816 8 221 0.0 0.0 0.00 0.38 0.00 86 1011.6
20260505063316 8 221 0.0 0.0 0.00 0.38 0.00 86 1011.4
20260505063046 8 221 0.0 0.0 0.00 0.38 0.00 86 1011.4
20260505062546 8 221 0.0 0.0 0.00 0.38 0.00 86 1011.4
20260505061816 8 221 0.0 0.0 0.00 0.38 0.00 86 1011.6
20260505061315 8 221 0.0 0.0 0.00 0.38 0.00 86 1011.4
20260505060814 8 221 0.0 0.0 0.00 0.38 0.00 86 1011.4
20260505060314 8 221 0.0 0.0 0.00 0.38 0.00 86 1011.6
20260505055810 8 221 0.0 1.6 0.00 0.38 0.38 85 1011.6
20260505055308 8 221 0.0 1.6 0.00 0.38 0.38 85 1011.6
20260505054808 8 221 0.0 1.6 0.00 0.38 0.38 85 1011.7
20260505054307 8 221 0.0 1.6 0.00 0.38 0.38 85 1011.6
20260505053806 8 221 0.0 1.6 0.00 0.38 0.38 85 1011.4
20260505053304 8 221 0.0 0.0 0.00 0.38 0.38 85 1011.3
20260505052804 8 221 0.0 1.6 0.00 0.38 0.38 85 1011.2
20260505052304 8 221 0.0 3.2 0.00 0.38 0.38 85 1011.2
20260505051801 8 221 1.6 3.2 0.00 0.38 0.38 85 1011.4
20260505051300 8 221 1.6 6.4 0.00 0.38 0.38 85 1011.3
20260505051256 8 221 1.6 3.2 0.00 0.38 0.38 85 1011.2
20260505050254 8 221 1.6 6.4 0.00 0.38 0.38 84 1011.3
20260505041751 8 209 4.8 9.7 0.10 0.38 0.38 84 1011.8
20260505041747 8 209 3.2 9.7 0.08 0.38 0.38 84 1011.7
20260505040746 8 230 3.2 8.0 0.13 0.38 0.38 83 1011.8
20260505040246 8 221 1.6 8.0 0.18 0.38 0.38 83 1011.8
20260505035743 8 221 1.6 8.0 0.23 0.38 0.38 83 1011.7
20260505035244 8 220 1.6 6.4 0.25 0.38 0.38 83 1011.6
20260505034744 8 220 1.6 6.4 0.28 0.38 0.38 82 1011.6
20260505034242 9 220 1.6 6.4 0.30 0.38 0.38 82 1011.7
20260505033740 9 220 1.6 9.7 0.30 0.38 0.38 82 1011.8
20260505033240 9 218 1.6 12.9 0.33 0.38 0.38 81 1011.9
20260505032735 9 241 3.2 16.1 0.33 0.36 0.36 81 1011.8
20260505032234 9 272 4.8 16.1 0.30 0.33 0.33 81 1011.9
20260505031734 10 250 4.8 14.5 0.28 0.30 0.30 80 1011.8
20260505031233 10 258 4.8 16.1 0.25 0.28 0.28 80 1011.7
20260505030733 10 265 6.4 16.1 0.23 0.25 0.25 79 1011.7
20260505030234 10 259 6.4 14.5 0.18 0.20 0.20 78 1011.6
20260505025734 10 274 4.8 14.5 0.13 0.15 0.18 77 1011.6
20260505025504 10 303 3.2 12.9 0.10 0.13 0.13 75 1011.4
20260505024730 10 258 4.8 12.9 0.08 0.10 0.10 75 1011.2
20260505024158 10 283 4.8 9.7 0.05 0.08 0.08 73 1011.0
20260505023655 10 303 3.2 9.7 0.03 0.05 0.05 72 1010.9
20260505023156 10 314 3.2 9.7 0.03 0.05 0.05 71 1010.9
20260505022654 11 304 3.2 9.7 0.00 0.03 0.03 70 1010.6
20260505022152 11 316 3.2 8.0 0.00 0.03 0.03 69 1010.5
20260505021651 11 310 3.2 9.7 0.00 0.03 0.03 68 1010.5
20260505021152 11 315 4.8 9.7 0.00 0.03 0.03 68 1010.5
20260505020650 11 320 4.8 9.7 0.03 0.03 0.03 68 1010.5
20260505020150 11 313 4.8 12.9 0.03 0.03 0.03 67 1010.7
20260505015644 11 278 6.4 12.9 0.03 0.03 0.03 67 1010.7
20260505015144 11 301 4.8 12.9 0.03 0.03 0.03 67 1010.7
20260505014642 11 308 4.8 12.9 0.03 0.03 0.03 66 1010.6
20260505014142 11 2 4.8 12.9 0.03 0.03 0.03 66 1010.5
20260505013640 12 335 4.8 14.5 0.03 0.03 0.03 65 1010.3
20260505013410 12 313 6.4 17.7 0.03 0.03 0.03 64 1010.2
20260505012909 12 325 8.0 17.7 0.03 0.03 0.03 63 1010.3
20260505012409 13 7 8.0 17.7 0.03 0.03 0.03 61 1010.4
20260505011636 13 335 6.4 17.7 0.03 0.03 0.03 60 1010.0
20260505011407 13 291 4.8 9.7 0.03 0.03 0.03 60 1010.2
20260505010635 14 10 3.2 9.7 0.00 0.00 0.00 57 1009.9
20260505010136 14 29 3.2 8.0 0.00 0.00 0.00 55 1009.8
20260505005904 14 4 3.2 9.7 0.00 0.00 0.00 54 1009.8
20260505005405 14 8 3.2 9.7 0.00 0.00 0.00 52 1009.6
20260505004632 14 304 3.2 8.0 0.00 0.00 0.00 52 1009.7
20260505004132 14 305 1.6 8.0 0.00 0.00 0.00 52 1009.7
20260505003630 14 303 4.8 14.5 0.00 0.00 0.00 53 1009.7
20260505003129 14 311 6.4 14.5 0.00 0.00 0.00 53 1009.6
20260505002629 15 22 4.8 9.7 0.00 0.00 0.00 53 1009.5
20260505002124 15 3 4.8 9.7 0.00 0.00 0.00 52 1009.5
20260505001622 15 16 6.4 12.9 0.00 0.00 0.00 51 1009.5
20260505001349 15 9 6.4 12.9 0.00 0.00 0.00 50 1009.5
20260505000616 15 331 4.8 12.9 0.00 0.00 0.00 49 1009.5
20260505000113 15 331 3.2 9.7 0.00 0.00 0.00 48 1009.3
20260504235611 15 20 4.8 11.3 0.00 0.00 0.00 48 1009.3
20260504235112 15 20 4.8 11.3 0.00 0.00 0.00 48 1009.3
20260504234609 15 20 6.4 14.5 0.00 0.00 0.00 48 1009.5
20260504234109 15 20 6.4 14.5 0.00 0.00 0.00 48 1009.3
20260504233834 15 20 6.4 14.5 0.00 0.00 0.00 47 1009.2
20260504233335 15 20 4.8 12.9 0.00 0.00 0.00 46 1009.2
20260504232832 15 20 4.8 9.7 0.00 0.00 0.00 46 1009.0
20260504232101 15 330 4.8 9.7 0.00 0.00 0.00 47 1009.1
20260504231830 15 335 6.4 11.3 0.00 0.00 0.00 47 1009.1
20260504231058 15 4 8.0 19.3 0.00 0.00 0.00 48 1009.3
20260504230555 15 20 8.0 19.3 0.00 0.00 0.00 48 1009.2
20260504230055 16 311 8.0 22.5 0.00 0.00 0.00 49 1009.5
20260504225559 16 219 8.0 22.5 0.00 0.00 0.00 45 1009.3
20260504225555 16 287 8.0 22.5 0.00 0.00 0.00 48 1009.3
20260504224552 16 281 8.0 17.7 0.00 0.00 0.00 43 1009.5
20260504224052 16 230 6.4 17.7 0.00 0.00 0.00 40 1009.5
20260504223551 16 20 3.2 17.7 0.00 0.00 0.00 39 1009.3
20260504223547 16 278 1.6 8.0 0.00 0.00 0.00 39 1009.3
20260504222815 16 20 3.2 8.0 0.00 0.00 0.00 39 1009.2
20260504222042 16 20 3.2 12.9 0.00 0.00 0.00 38 1009.0
20260504221541 16 20 6.4 14.5 0.00 0.00 0.00 38 1009.0
20260504221041 16 20 9.7 19.3 0.00 0.00 0.00 39 1008.8
20260504220808 17 20 11.3 25.7 0.00 0.00 0.00 39 1008.5
20260504220642 17 20 11.3 25.7 0.00 0.00 0.00 39 1008.4
20260504215535 17 20 12.9 30.6 0.00 0.00 0.00 40 1008.3
20260504215034 17 4 16.1 32.2 0.00 0.00 0.00 38 1008.3
20260504214805 17 20 14.5 32.2 0.00 0.00 0.00 38 1008.3
20260504214033 17 3 14.5 33.8 0.00 0.00 0.00 39 1008.2
20260504213803 17 18 17.7 37.0 0.00 0.00 0.00 39 1008.3
20260504213305 17 7 19.3 37.0 0.00 0.00 0.00 37 1008.4
20260504212533 18 18 17.7 38.6 0.00 0.00 0.00 36 1008.4
20260504212304 18 335 16.1 38.6 0.00 0.00 0.00 36 1008.3
20260504211529 18 27 14.5 32.2 0.00 0.00 0.00 36 1008.4
20260504211300 18 16 16.1 32.2 0.00 0.00 0.00 36 1008.5
20260504210529 18 12 16.1 32.2 0.00 0.00 0.00 33 1008.8
20260504210029 19 15 11.3 32.2 0.00 0.00 0.00 31 1008.8
20260504205529 20 311 4.8 16.1 0.00 0.00 0.00 29 1008.8
20260504205029 20 137 4.8 11.3 0.00 0.00 0.00 28 1008.4
20260504204523 21 20 6.4 11.3 0.00 0.00 0.00 28 1008.3
20260504204252 21 171 8.0 14.5 0.00 0.00 0.00 27 1008.3
20260504203521 22 214 9.7 20.9 0.00 0.00 0.00 26 1008.1
20260504203021 22 151 8.0 20.9 0.00 0.00 0.00 26 1008.2
20260504202520 21 138 6.4 19.3 0.00 0.00 0.00 26 1008.1
20260504202021 21 193 6.4 11.3 0.00 0.00 0.00 28 1008.1
20260504201521 20 221 4.8 11.3 0.00 0.00 0.00 29 1008.1
20260504201021 19 20 6.4 17.7 0.00 0.00 0.00 30 1008.2
20260504200752 19 155 9.7 17.7 0.00 0.00 0.00 30 1008.2
20260504200019 19 20 11.3 20.9 0.00 0.00 0.00 29 1008.1
20260504195518 20 20 11.3 29.0 0.00 0.00 0.00 28 1008.1
20260504195016 21 20 11.3 29.0 0.00 0.00 0.00 26 1008.1
20260504194514 22 20 8.0 25.7 0.00 0.00 0.00 23 1008.3
20260504194246 23 220 4.8 11.3 0.00 0.00 0.00 19 1008.2
20260504193515 24 20 3.2 20.9 0.00 0.00 0.00 18 1007.9
20260504193015 25 331 3.2 20.9 0.00 0.00 0.00 17 1007.7
20260504192515 25 320 6.4 20.9 0.00 0.00 0.00 17 1007.7
20260504192014 25 268 6.4 20.9 0.00 0.00 0.00 17 1007.6
20260504191516 24 232 6.4 14.5 0.00 0.00 0.00 19 1007.5
20260504191015 23 20 4.8 11.3 0.00 0.00 0.00 17 1007.6
20260504190512 23 20 4.8 12.9 0.00 0.00 0.00 19 1007.7
20260504190244 23 55 4.8 12.9 0.00 0.00 0.00 20 1007.6
20260504185513 23 7 6.4 12.9 0.00 0.00 0.00 20 1007.6
20260504185013 23 314 6.4 12.9 0.00 0.00 0.00 20 1007.7
20260504184513 23 14 8.0 16.1 0.00 0.00 0.00 20 1007.6
20260504184244 23 44 9.7 17.7 0.00 0.00 0.00 20 1007.7
20260504183513 23 297 9.7 20.9 0.00 0.00 0.00 20 1007.8
20260504183013 23 307 11.3 32.2 0.00 0.00 0.00 20 1007.9
20260504182511 23 20 11.3 32.2 0.00 0.00 0.00 20 1007.9
20260504182008 23 290 12.9 24.1 0.00 0.00 0.00 21 1007.9
20260504181509 23 20 12.9 24.1 0.00 0.00 0.00 21 1008.1
20260504181006 23 8 11.3 22.5 0.00 0.00 0.00 23 1008.2
20260504180739 23 291 11.3 25.7 0.00 0.00 0.00 22 1008.2
20260504180001 23 294 9.7 29.0 0.00 0.00 0.00 23 1008.2
20260504175501 22 320 9.7 29.0 0.00 0.00 0.00 24 1008.4
20260504175232 22 328 9.7 20.9 0.00 0.00 0.00 25 1008.4
20260504174500 22 302 11.3 30.6 0.00 0.00 0.00 24 1008.5
20260504173959 21 280 12.9 30.6 0.00 0.00 0.00 25 1008.8
20260504173458 21 268 12.9 25.7 0.00 0.00 0.00 25 1009.0
20260504172959 21 331 11.3 35.4 0.00 0.00 0.00 25 1009.1
20260504172459 21 7 9.7 35.4 0.00 0.00 0.00 25 1009.1
20260504171958 21 2 9.7 20.9 0.00 0.00 0.00 25 1009.2
20260504171457 21 254 11.3 22.5 0.00 0.00 0.00 26 1009.3
20260504170957 21 308 9.7 22.5 0.00 0.00 0.00 26 1009.3
20260504170428 21 299 8.0 22.5 0.00 0.00 0.00 27 1009.3
20260504160419 17 20 4.8 17.7 0.00 0.00 0.00 30 1009.5
20260504160148 17 20 4.8 17.7 0.00 0.00 0.00 30 1009.5
20260504150913 15 20 3.2 8.0 0.00 0.00 0.00 35 1009.7
20260504150416 15 20 3.2 9.7 0.00 0.00 0.00 35 1009.7
20260504150412 15 20 1.6 9.7 0.00 0.00 0.00 36 1009.7
20260504140856 10 316 0.0 1.6 0.00 0.00 0.00 49 1009.9
20260504140357 10 20 0.0 0.0 0.00 0.00 0.00 51 1010.0
20260504130339 7 242 1.6 9.7 0.00 0.00 0.00 60 1009.5